Time,TemperatureF,DewpointF,PressureIn,WindDirection,WindDirectionDegrees,WindSpeedMPH,WindSpeedGustMPH,Humidity,HourlyPrecipIn,Conditions,Clouds,dailyrainin,SoftwareType,DateUTC
2013-01-29 00:00:00,49.5,47.8,30.01,SSW,193,0.0,-999.0,94,0.00,,,0.43,Wunderground v.1.15,2013-01-29 05:00:00,
2013-01-29 00:04:00,49.4,47.7,30.01,SSW,193,0.0,-999.0,94,0.00,,,0.00,Wunderground v.1.15,2013-01-29 05:04:00,
2013-01-29 00:06:00,49.3,47.6,30.01,SSW,193,0.0,-999.0,94,0.00,,,0.00,Wunderground v.1.15,2013-01-29 05:06:00,
2013-01-29 00:09:00,49.2,47.5,30.01,SSW,193,0.0,-999.0,94,0.00,,,0.00,Wunderground v.1.15,2013-01-29 05:09:00,
2013-01-29 00:14:00,49.2,47.5,30.01,SSW,193,0.0,-999.0,94,0.00,,,0.00,Wunderground v.1.15,2013-01-29 05:14:00,
2013-01-29 00:20:00,49.1,47.4,30.00,SSW,193,0.0,-999.0,94,0.00,,,0.00,Wunderground v.1.15,2013-01-29 05:20:00,
2013-01-29 00:26:00,49.0,47.3,30.00,SSW,193,0.0,-999.0,94,0.00,,,0.00,Wunderground v.1.15,2013-01-29 05:26:00,
2013-01-29 00:32:00,49.1,47.4,30.00,SSW,193,0.0,-999.0,94,0.00,,,0.00,Wunderground v.1.15,2013-01-29 05:32:00,
2013-01-29 00:38:00,49.1,47.4,30.00,SSW,193,0.0,-999.0,94,0.00,,,0.00,Wunderground v.1.15,2013-01-29 05:38:00,
2013-01-29 00:44:00,49.2,47.5,30.00,SSW,199,0.0,-999.0,94,0.00,,,0.00,Wunderground v.1.15,2013-01-29 05:44:00,
2013-01-29 00:50:00,49.3,47.6,30.00,SSW,199,0.0,-999.0,94,0.00,,,0.00,Wunderground v.1.15,2013-01-29 05:50:00,
2013-01-29 00:56:00,49.3,47.6,30.00,SSW,199,0.0,-999.0,94,0.00,,,0.00,Wunderground v.1.15,2013-01-29 05:56:00,
2013-01-29 01:01:00,49.3,47.6,30.00,SSW,199,0.0,-999.0,94,0.00,,,0.00,Wunderground v.1.15,2013-01-29 06:01:00,
2013-01-29 01:07:00,49.1,47.4,30.00,SSW,199,0.0,-999.0,94,0.00,,,0.00,Wunderground v.1.15,2013-01-29 06:07:00,
2013-01-29 01:13:00,48.9,47.2,30.00,SSW,199,0.0,-999.0,94,0.00,,,0.00,Wunderground v.1.15,2013-01-29 06:13:00,
2013-01-29 01:19:00,48.9,47.2,30.00,SSW,199,0.0,-999.0,94,0.00,,,0.00,Wunderground v.1.15,2013-01-29 06:19:00,
2013-01-29 01:25:00,48.7,47.1,30.00,SSW,199,0.0,-999.0,94,0.00,,,0.00,Wunderground v.1.15,2013-01-29 06:25:00,
2013-01-29 01:31:00,48.7,47.1,29.99,SSW,199,0.0,-999.0,94,0.00,,,0.00,Wunderground v.1.15,2013-01-29 06:31:00,
2013-01-29 01:37:00,48.7,47.1,29.99,SSW,199,0.0,-999.0,94,0.00,,,0.00,Wunderground v.1.15,2013-01-29 06:37:00,
2013-01-29 01:42:00,48.7,47.1,29.99,SSW,199,0.0,-999.0,94,0.00,,,0.00,Wunderground v.1.15,2013-01-29 06:42:00,
2013-01-29 01:48:00,48.7,47.1,29.99,SSW,199,0.0,-999.0,94,0.00,,,0.01,Wunderground v.1.15,2013-01-29 06:48:00,
2013-01-29 01:54:00,48.9,47.2,29.99,SSW,199,0.0,-999.0,94,0.00,,,0.01,Wunderground v.1.15,2013-01-29 06:54:00,
2013-01-29 02:00:00,48.9,47.2,29.99,SSW,199,0.0,-999.0,94,0.00,,,0.01,Wunderground v.1.15,2013-01-29 07:00:00,
2013-01-29 02:06:00,49.0,47.3,29.99,SSW,199,0.0,-999.0,94,0.00,,,0.01,Wunderground v.1.15,2013-01-29 07:06:00,
2013-01-29 02:12:00,48.8,47.2,29.99,SSW,199,0.0,-999.0,94,0.00,,,0.01,Wunderground v.1.15,2013-01-29 07:12:00,
2013-01-29 02:18:00,48.7,47.1,29.99,SSW,199,0.0,-999.0,94,0.00,,,0.01,Wunderground v.1.15,2013-01-29 07:18:00,
2013-01-29 02:24:00,48.7,47.1,29.99,SSW,199,0.0,-999.0,94,0.00,,,0.01,Wunderground v.1.15,2013-01-29 07:24:00,
2013-01-29 02:29:00,49.2,47.5,29.99,SSW,204,0.0,-999.0,94,0.00,,,0.01,Wunderground v.1.15,2013-01-29 07:29:00,
2013-01-29 02:35:00,49.5,47.8,29.99,SSW,204,0.0,-999.0,94,0.00,,,0.01,Wunderground v.1.15,2013-01-29 07:35:00,
2013-01-29 02:41:00,49.5,47.8,29.99,SSW,204,0.0,-999.0,94,0.00,,,0.01,Wunderground v.1.15,2013-01-29 07:41:00,
2013-01-29 02:47:00,49.6,47.9,29.98,SSW,204,0.0,-999.0,94,0.00,,,0.01,Wunderground v.1.15,2013-01-29 07:47:00,
2013-01-29 02:53:00,49.4,47.7,29.98,SSW,204,0.0,-999.0,94,0.00,,,0.01,Wunderground v.1.15,2013-01-29 07:53:00,
2013-01-29 02:59:00,49.5,47.8,29.98,SSW,204,0.0,-999.0,94,0.00,,,0.01,Wunderground v.1.15,2013-01-29 07:59:00,
2013-01-29 03:05:00,49.6,47.9,29.99,SSW,204,0.0,-999.0,94,0.00,,,0.01,Wunderground v.1.15,2013-01-29 08:05:00,
2013-01-29 03:11:00,49.6,47.9,29.98,SSW,204,0.0,-999.0,94,0.00,,,0.01,Wunderground v.1.15,2013-01-29 08:11:00,
2013-01-29 03:17:00,49.4,47.7,29.98,SSW,204,0.0,-999.0,94,0.00,,,0.01,Wunderground v.1.15,2013-01-29 08:17:00,
2013-01-29 03:22:00,49.3,47.6,29.98,SSW,204,0.0,-999.0,94,0.00,,,0.01,Wunderground v.1.15,2013-01-29 08:22:00,
2013-01-29 03:28:00,49.4,47.7,29.98,SSW,204,0.0,-999.0,94,0.00,,,0.01,Wunderground v.1.15,2013-01-29 08:28:00,
2013-01-29 03:33:00,49.5,47.8,29.98,SSW,204,0.0,-999.0,94,0.00,,,0.01,Wunderground v.1.15,2013-01-29 08:33:00,
2013-01-29 03:39:00,49.6,47.9,29.98,SSW,204,0.0,-999.0,94,0.00,,,0.01,Wunderground v.1.15,2013-01-29 08:39:00,
2013-01-29 03:45:00,49.7,48.0,29.98,SSW,204,0.0,-999.0,94,0.00,,,0.01,Wunderground v.1.15,2013-01-29 08:45:00,
2013-01-29 03:51:00,49.7,48.0,29.98,SSW,204,0.0,-999.0,94,0.00,,,0.01,Wunderground v.1.15,2013-01-29 08:51:00,
2013-01-29 03:57:00,49.8,48.1,29.97,SW,217,0.0,-999.0,94,0.00,,,0.01,Wunderground v.1.15,2013-01-29 08:57:00,
2013-01-29 04:03:00,49.8,48.1,29.97,South,183,0.0,-999.0,94,0.00,,,0.01,Wunderground v.1.15,2013-01-29 09:03:00,
2013-01-29 04:08:00,49.9,48.2,29.97,South,183,0.0,-999.0,94,0.00,,,0.01,Wunderground v.1.15,2013-01-29 09:08:00,
2013-01-29 04:14:00,50.1,48.4,29.98,SSW,203,0.0,-999.0,94,0.00,,,0.01,Wunderground v.1.15,2013-01-29 09:14:00,
2013-01-29 04:20:00,50.3,48.6,29.97,SSW,203,0.0,-999.0,94,0.00,,,0.01,Wunderground v.1.15,2013-01-29 09:20:00,
2013-01-29 04:26:00,50.3,48.6,29.97,SSW,204,1.0,-999.0,94,0.00,,,0.01,Wunderground v.1.15,2013-01-29 09:26:00,
2013-01-29 04:32:00,50.3,48.6,29.97,SSW,211,1.0,-999.0,94,0.00,,,0.01,Wunderground v.1.15,2013-01-29 09:32:00,
2013-01-29 04:38:00,50.3,48.6,29.97,SSW,211,1.0,-999.0,94,0.00,,,0.01,Wunderground v.1.15,2013-01-29 09:38:00,
2013-01-29 04:44:00,50.2,48.5,29.96,SSW,211,0.0,-999.0,94,0.00,,,0.01,Wunderground v.1.15,2013-01-29 09:44:00,
2013-01-29 04:49:00,50.1,48.4,29.96,SSW,211,0.0,-999.0,94,0.00,,,0.01,Wunderground v.1.15,2013-01-29 09:49:00,
2013-01-29 04:55:00,49.9,48.2,29.96,SSW,211,0.0,-999.0,94,0.00,,,0.01,Wunderground v.1.15,2013-01-29 09:55:00,
2013-01-29 05:01:00,50.4,48.7,29.96,SSW,207,0.0,-999.0,94,0.00,,,0.01,Wunderground v.1.15,2013-01-29 10:01:00,
2013-01-29 05:07:00,50.4,48.7,29.96,SSW,207,0.0,-999.0,94,0.00,,,0.01,Wunderground v.1.15,2013-01-29 10:07:00,
2013-01-29 05:13:00,50.4,48.7,29.96,SSW,207,0.0,-999.0,94,0.00,,,0.01,Wunderground v.1.15,2013-01-29 10:13:00,
2013-01-29 05:19:00,50.1,48.4,29.96,SSW,207,0.0,-999.0,94,0.00,,,0.01,Wunderground v.1.15,2013-01-29 10:19:00,
2013-01-29 05:25:00,50.0,48.3,29.96,SSW,207,0.0,-999.0,94,0.00,,,0.01,Wunderground v.1.15,2013-01-29 10:25:00,
2013-01-29 05:30:00,50.4,48.7,29.96,SSW,207,0.0,-999.0,94,0.00,,,0.01,Wunderground v.1.15,2013-01-29 10:30:00,
2013-01-29 05:36:00,50.5,48.8,29.95,SSW,200,1.0,-999.0,94,0.00,,,0.01,Wunderground v.1.15,2013-01-29 10:36:00,
2013-01-29 05:42:00,50.5,48.8,29.95,SSW,200,0.0,-999.0,94,0.00,,,0.01,Wunderground v.1.15,2013-01-29 10:42:00,
2013-01-29 05:48:00,50.3,48.6,29.95,SSW,199,0.0,-999.0,94,0.00,,,0.01,Wunderground v.1.15,2013-01-29 10:48:00,
2013-01-29 05:54:00,50.4,48.7,29.94,SSE,155,0.0,-999.0,94,0.00,,,0.01,Wunderground v.1.15,2013-01-29 10:54:00,
2013-01-29 06:00:00,50.5,48.8,29.94,South,172,2.0,-999.0,94,0.00,,,0.01,Wunderground v.1.15,2013-01-29 11:00:00,
2013-01-29 06:05:00,50.5,48.8,29.94,South,179,2.0,-999.0,94,0.00,,,0.01,Wunderground v.1.15,2013-01-29 11:05:00,
2013-01-29 06:11:00,49.8,48.1,29.95,South,179,1.0,-999.0,94,0.00,,,0.01,Wunderground v.1.15,2013-01-29 11:11:00,
2013-01-29 06:17:00,49.5,47.8,29.95,South,179,0.0,-999.0,94,0.00,,,0.01,Wunderground v.1.15,2013-01-29 11:17:00,
2013-01-29 06:23:00,49.5,47.8,29.94,South,179,0.0,-999.0,94,0.00,,,0.01,Wunderground v.1.15,2013-01-29 11:23:00,
2013-01-29 06:29:00,49.7,48.0,29.94,South,179,0.0,-999.0,94,0.00,,,0.01,Wunderground v.1.15,2013-01-29 11:29:00,
2013-01-29 06:35:00,50.1,48.4,29.94,South,179,2.0,-999.0,94,0.00,,,0.01,Wunderground v.1.15,2013-01-29 11:35:00,
2013-01-29 06:41:00,50.5,48.8,29.94,South,191,3.0,-999.0,94,0.00,,,0.01,Wunderground v.1.15,2013-01-29 11:41:00,
2013-01-29 06:47:00,50.9,49.2,29.94,South,188,2.0,-999.0,94,0.00,,,0.01,Wunderground v.1.15,2013-01-29 11:47:00,
2013-01-29 06:52:00,50.9,49.2,29.94,SSE,166,3.0,-999.0,94,0.00,,,0.01,Wunderground v.1.15,2013-01-29 11:52:00,
2013-01-29 06:58:00,50.7,49.0,29.94,South,175,3.0,-999.0,94,0.00,,,0.01,Wunderground v.1.15,2013-01-29 11:58:00,
2013-01-29 07:04:00,50.5,48.8,29.94,South,177,3.0,-999.0,94,0.00,,,0.01,Wunderground v.1.15,2013-01-29 12:04:00,
2013-01-29 07:09:00,50.9,49.2,29.94,South,186,2.0,-999.0,94,0.00,,,0.01,Wunderground v.1.15,2013-01-29 12:09:00,
2013-01-29 07:15:00,51.2,49.5,29.94,South,178,2.0,-999.0,94,0.00,,,0.01,Wunderground v.1.15,2013-01-29 12:15:00,
2013-01-29 07:21:00,51.5,49.8,29.94,South,182,3.0,-999.0,94,0.00,,,0.01,Wunderground v.1.15,2013-01-29 12:21:00,
2013-01-29 07:27:00,51.6,49.9,29.94,South,175,4.0,-999.0,94,0.00,,,0.01,Wunderground v.1.15,2013-01-29 12:27:00,
2013-01-29 07:32:00,51.6,49.9,29.94,South,179,4.0,-999.0,94,0.00,,,0.01,Wunderground v.1.15,2013-01-29 12:32:00,
2013-01-29 07:37:00,51.6,49.9,29.94,South,175,3.0,-999.0,94,0.00,,,0.01,Wunderground v.1.15,2013-01-29 12:37:00,
2013-01-29 07:43:00,51.7,50.0,29.95,South,186,3.0,-999.0,94,0.00,,,0.01,Wunderground v.1.15,2013-01-29 12:43:00,
2013-01-29 07:49:00,51.9,50.2,29.95,South,189,4.0,-999.0,94,0.00,,,0.01,Wunderground v.1.15,2013-01-29 12:49:00,
2013-01-29 07:55:00,51.9,50.2,29.94,South,182,4.0,-999.0,94,0.00,,,0.01,Wunderground v.1.15,2013-01-29 12:55:00,
2013-01-29 08:01:00,51.9,50.2,29.94,SSW,192,4.0,-999.0,94,0.00,,,0.01,Wunderground v.1.15,2013-01-29 13:01:00,
2013-01-29 08:07:00,52.1,50.4,29.94,South,190,6.0,-999.0,94,0.00,,,0.01,Wunderground v.1.15,2013-01-29 13:07:00,
2013-01-29 08:13:00,52.3,50.6,29.94,SSW,196,7.0,-999.0,94,0.00,,,0.01,Wunderground v.1.15,2013-01-29 13:13:00,
2013-01-29 08:19:00,52.4,50.7,29.94,South,188,6.0,-999.0,94,0.00,,,0.01,Wunderground v.1.15,2013-01-29 13:19:00,
2013-01-29 08:25:00,52.5,50.8,29.93,South,178,7.0,-999.0,94,0.00,,,0.01,Wunderground v.1.15,2013-01-29 13:25:00,
2013-01-29 08:31:00,52.5,50.8,29.93,SSW,194,6.0,-999.0,94,0.00,,,0.01,Wunderground v.1.15,2013-01-29 13:31:00,
2013-01-29 08:37:00,52.7,51.0,29.93,South,186,5.0,-999.0,94,0.00,,,0.01,Wunderground v.1.15,2013-01-29 13:37:00,
2013-01-29 08:42:00,52.8,51.1,29.93,SSW,209,5.0,-999.0,94,0.00,,,0.01,Wunderground v.1.15,2013-01-29 13:42:00,
2013-01-29 08:48:00,53.1,51.4,29.93,SSW,209,6.0,-999.0,94,0.00,,,0.01,Wunderground v.1.15,2013-01-29 13:48:00,
2013-01-29 08:54:00,53.2,51.5,29.93,South,187,6.0,-999.0,94,0.00,,,0.01,Wunderground v.1.15,2013-01-29 13:54:00,
2013-01-29 09:00:00,53.2,51.5,29.93,South,175,6.0,-999.0,94,0.00,,,0.01,Wunderground v.1.15,2013-01-29 14:00:00,
2013-01-29 09:06:00,53.4,51.7,29.93,SW,218,7.0,-999.0,94,0.00,,,0.01,Wunderground v.1.15,2013-01-29 14:06:00,
2013-01-29 09:12:00,53.7,52.0,29.92,SW,217,7.0,-999.0,94,0.00,,,0.01,Wunderground v.1.15,2013-01-29 14:12:00,
2013-01-29 09:18:00,53.9,52.2,29.92,South,181,7.0,-999.0,94,0.00,,,0.01,Wunderground v.1.15,2013-01-29 14:18:00,
2013-01-29 09:23:00,54.0,52.3,29.92,SSW,196,9.0,-999.0,94,0.00,,,0.01,Wunderground v.1.15,2013-01-29 14:23:00,
2013-01-29 09:29:00,54.2,52.2,29.91,SW,224,9.0,-999.0,93,0.00,,,0.01,Wunderground v.1.15,2013-01-29 14:29:00,
2013-01-29 09:35:00,54.3,52.3,29.92,SSW,203,9.0,-999.0,93,0.00,,,0.01,Wunderground v.1.15,2013-01-29 14:35:00,
2013-01-29 09:41:00,54.6,52.3,29.91,South,188,8.0,-999.0,92,0.00,,,0.01,Wunderground v.1.15,2013-01-29 14:41:00,
2013-01-29 09:47:00,54.7,52.4,29.91,WSW,240,7.0,-999.0,92,0.00,,,0.01,Wunderground v.1.15,2013-01-29 14:47:00,
2013-01-29 09:53:00,54.9,52.6,29.91,South,189,7.0,-999.0,92,0.00,,,0.01,Wunderground v.1.15,2013-01-29 14:53:00,
2013-01-29 09:59:00,55.1,52.5,29.91,SSW,205,8.0,-999.0,91,0.00,,,0.01,Wunderground v.1.15,2013-01-29 14:59:00,
2013-01-29 10:05:00,55.1,52.5,29.91,SW,219,8.0,-999.0,91,0.00,,,0.01,Wunderground v.1.15,2013-01-29 15:05:00,
2013-01-29 10:10:00,55.2,52.3,29.90,South,177,9.0,-999.0,90,0.00,,,0.01,Wunderground v.1.15,2013-01-29 15:10:00,
2013-01-29 10:16:00,55.6,53.0,29.90,SSW,196,10.0,-999.0,91,0.00,,,0.01,Wunderground v.1.15,2013-01-29 15:16:00,
2013-01-29 10:22:00,56.1,53.2,29.90,SSW,212,8.0,-999.0,90,0.00,,,0.01,Wunderground v.1.15,2013-01-29 15:22:00,
2013-01-29 10:28:00,56.1,52.9,29.90,SSW,212,9.0,-999.0,89,0.00,,,0.01,Wunderground v.1.15,2013-01-29 15:28:00,
2013-01-29 10:34:00,56.1,52.9,29.90,SSW,210,9.0,-999.0,89,0.00,,,0.01,Wunderground v.1.15,2013-01-29 15:34:00,
2013-01-29 10:40:00,56.2,53.0,29.90,SSW,196,8.0,-999.0,89,0.00,,,0.01,Wunderground v.1.15,2013-01-29 15:40:00,
2013-01-29 10:46:00,56.2,53.0,29.91,SSW,209,8.0,-999.0,89,0.00,,,0.01,Wunderground v.1.15,2013-01-29 15:46:00,
2013-01-29 10:52:00,56.3,53.1,29.91,SSW,193,8.0,-999.0,89,0.00,,,0.01,Wunderground v.1.15,2013-01-29 15:52:00,
2013-01-29 10:58:00,56.4,53.2,29.91,WSW,250,8.0,-999.0,89,0.00,,,0.01,Wunderground v.1.15,2013-01-29 15:58:00,
2013-01-29 11:03:00,56.6,53.7,29.91,SW,215,7.0,-999.0,90,0.00,,,0.01,Wunderground v.1.15,2013-01-29 16:03:00,
2013-01-29 11:09:00,56.8,53.6,29.91,WSW,238,7.0,-999.0,89,0.00,,,0.01,Wunderground v.1.15,2013-01-29 16:09:00,
2013-01-29 11:15:00,56.9,54.0,29.90,SW,234,7.0,-999.0,90,0.00,,,0.01,Wunderground v.1.15,2013-01-29 16:15:00,
2013-01-29 11:21:00,57.1,53.9,29.90,South,176,8.0,-999.0,89,0.00,,,0.01,Wunderground v.1.15,2013-01-29 16:21:00,
2013-01-29 11:27:00,57.1,53.9,29.90,SW,226,8.0,-999.0,89,0.00,,,0.01,Wunderground v.1.15,2013-01-29 16:27:00,
2013-01-29 11:33:00,57.3,54.1,29.89,SSW,209,7.0,-999.0,89,0.00,,,0.01,Wunderground v.1.15,2013-01-29 16:33:00,
2013-01-29 11:39:00,57.3,54.1,29.89,SSW,196,7.0,-999.0,89,0.00,,,0.01,Wunderground v.1.15,2013-01-29 16:39:00,
2013-01-29 11:45:00,57.4,54.2,29.88,SW,225,7.0,-999.0,89,0.00,,,0.01,Wunderground v.1.15,2013-01-29 16:45:00,
2013-01-29 11:51:00,57.6,54.4,29.88,SSW,192,7.0,-999.0,89,0.00,,,0.01,Wunderground v.1.15,2013-01-29 16:51:00,
2013-01-29 11:57:00,58.1,54.9,29.88,SW,215,8.0,-999.0,89,0.00,,,0.01,Wunderground v.1.15,2013-01-29 16:57:00,
2013-01-29 12:02:00,58.2,54.7,29.88,WSW,237,7.0,-999.0,88,0.00,,,0.01,Wunderground v.1.15,2013-01-29 17:02:00,
2013-01-29 12:07:00,58.2,54.7,29.88,SSW,211,7.0,-999.0,88,0.00,,,0.01,Wunderground v.1.15,2013-01-29 17:07:00,
2013-01-29 12:13:00,58.3,54.8,29.87,WSW,238,8.0,-999.0,88,0.00,,,0.01,Wunderground v.1.15,2013-01-29 17:13:00,
2013-01-29 12:19:00,58.6,55.1,29.87,SSW,213,7.0,-999.0,88,0.00,,,0.01,Wunderground v.1.15,2013-01-29 17:19:00,
2013-01-29 12:25:00,59.1,55.5,29.86,South,184,6.0,-999.0,88,0.00,,,0.01,Wunderground v.1.15,2013-01-29 17:25:00,
2013-01-29 12:31:00,59.2,55.3,29.86,SSW,213,6.0,-999.0,87,0.00,,,0.01,Wunderground v.1.15,2013-01-29 17:31:00,
2013-01-29 12:37:00,59.3,55.4,29.86,SSW,200,6.0,-999.0,87,0.00,,,0.01,Wunderground v.1.15,2013-01-29 17:37:00,
2013-01-29 12:43:00,59.3,55.4,29.86,South,176,7.0,-999.0,87,0.00,,,0.01,Wunderground v.1.15,2013-01-29 17:43:00,
2013-01-29 12:48:00,59.3,55.4,29.85,SSW,209,6.0,-999.0,87,0.00,,,0.01,Wunderground v.1.15,2013-01-29 17:48:00,
2013-01-29 12:54:00,59.1,55.5,29.85,SSW,205,7.0,-999.0,88,0.00,,,0.01,Wunderground v.1.15,2013-01-29 17:54:00,
2013-01-29 13:00:00,59.3,56.1,29.85,South,188,7.0,-999.0,89,0.00,,,0.01,Wunderground v.1.15,2013-01-29 18:00:00,
2013-01-29 13:05:00,59.6,56.4,29.84,SSW,212,6.0,-999.0,89,0.00,,,0.01,Wunderground v.1.15,2013-01-29 18:05:00,
2013-01-29 13:11:00,59.9,56.3,29.85,South,188,5.0,-999.0,88,0.00,,,0.01,Wunderground v.1.15,2013-01-29 18:11:00,
2013-01-29 13:17:00,60.0,56.1,29.84,SE,146,6.0,-999.0,87,0.00,,,0.01,Wunderground v.1.15,2013-01-29 18:17:00,
2013-01-29 13:23:00,60.3,56.1,29.84,SW,219,6.0,-999.0,86,0.00,,,0.01,Wunderground v.1.15,2013-01-29 18:23:00,
2013-01-29 13:28:00,60.2,56.0,29.84,SW,217,6.0,-999.0,86,0.00,,,0.01,Wunderground v.1.15,2013-01-29 18:28:00,
2013-01-29 13:34:00,60.1,55.9,29.84,SSW,195,7.0,-999.0,86,0.00,,,0.01,Wunderground v.1.15,2013-01-29 18:34:00,
2013-01-29 13:40:00,60.1,55.9,29.83,South,182,6.0,-999.0,86,0.00,,,0.01,Wunderground v.1.15,2013-01-29 18:40:00,
2013-01-29 13:46:00,60.2,56.0,29.82,South,191,7.0,-999.0,86,0.00,,,0.01,Wunderground v.1.15,2013-01-29 18:46:00,
2013-01-29 13:52:00,60.0,55.8,29.81,SSW,205,8.0,-999.0,86,0.00,,,0.01,Wunderground v.1.15,2013-01-29 18:52:00,
2013-01-29 13:58:00,60.0,55.8,29.81,South,173,8.0,-999.0,86,0.00,,,0.01,Wunderground v.1.15,2013-01-29 18:58:00,
2013-01-29 14:04:00,60.1,55.9,29.81,South,186,8.0,-999.0,86,0.00,,,0.01,Wunderground v.1.15,2013-01-29 19:04:00,
2013-01-29 14:10:00,60.5,56.0,29.81,SSW,194,8.0,-999.0,85,0.00,,,0.01,Wunderground v.1.15,2013-01-29 19:10:00,
2013-01-29 14:15:00,61.3,56.4,29.81,SSW,203,8.0,-999.0,84,0.00,,,0.01,Wunderground v.1.15,2013-01-29 19:15:00,
2013-01-29 14:21:00,62.1,56.9,29.81,SW,229,8.0,-999.0,83,0.00,,,0.01,Wunderground v.1.15,2013-01-29 19:21:00,
2013-01-29 14:27:00,62.3,56.4,29.82,SSW,205,7.0,-999.0,81,0.00,,,0.01,Wunderground v.1.15,2013-01-29 19:27:00,
2013-01-29 14:33:00,62.2,56.3,29.83,WSW,244,6.0,-999.0,81,0.00,,,0.01,Wunderground v.1.15,2013-01-29 19:33:00,
2013-01-29 14:39:00,62.2,56.3,29.82,West,264,6.0,-999.0,81,0.00,,,0.01,Wunderground v.1.15,2013-01-29 19:39:00,
2013-01-29 14:45:00,62.2,56.3,29.82,SSW,211,5.0,-999.0,81,0.00,,,0.01,Wunderground v.1.15,2013-01-29 19:45:00,
2013-01-29 14:51:00,62.0,56.1,29.81,SW,221,4.0,-999.0,81,0.00,,,0.01,Wunderground v.1.15,2013-01-29 19:51:00,
2013-01-29 14:56:00,61.6,56.7,29.82,South,185,4.0,-999.0,84,0.00,,,0.02,Wunderground v.1.15,2013-01-29 19:56:00,
2013-01-29 15:02:00,61.0,56.5,29.81,South,174,5.0,-999.0,85,0.11,,,0.03,Wunderground v.1.15,2013-01-29 20:02:00,
2013-01-29 15:07:00,60.5,56.6,29.80,South,176,5.0,-999.0,87,0.08,,,0.04,Wunderground v.1.15,2013-01-29 20:07:00,
2013-01-29 15:13:00,60.3,56.7,29.80,South,175,5.0,-999.0,88,0.07,,,0.04,Wunderground v.1.15,2013-01-29 20:13:00,
2013-01-29 15:18:00,60.3,56.7,29.81,SSW,195,5.0,-999.0,88,0.06,,,0.05,Wunderground v.1.15,2013-01-29 20:18:00,
2013-01-29 15:24:00,60.3,56.7,29.80,South,181,5.0,-999.0,88,0.06,,,0.05,Wunderground v.1.15,2013-01-29 20:24:00,
2013-01-29 15:30:00,60.2,56.6,29.80,South,175,4.0,-999.0,88,0.04,,,0.05,Wunderground v.1.15,2013-01-29 20:30:00,
2013-01-29 15:36:00,60.3,57.0,29.80,SSE,167,3.0,-999.0,89,0.00,,,0.05,Wunderground v.1.15,2013-01-29 20:36:00,
2013-01-29 15:41:00,60.5,57.6,29.80,South,176,3.0,-999.0,90,0.00,,,0.05,Wunderground v.1.15,2013-01-29 20:41:00,
2013-01-29 15:47:00,60.8,57.5,29.80,South,178,4.0,-999.0,89,0.00,,,0.05,Wunderground v.1.15,2013-01-29 20:47:00,
2013-01-29 15:53:00,61.6,57.4,29.79,South,178,5.0,-999.0,86,0.00,,,0.05,Wunderground v.1.15,2013-01-29 20:53:00,
2013-01-29 15:59:00,62.4,57.5,29.80,SSW,208,6.0,-999.0,84,0.00,,,0.05,Wunderground v.1.15,2013-01-29 20:59:00,
2013-01-29 16:04:00,62.9,57.3,29.79,South,173,6.0,-999.0,82,0.00,,,0.05,Wunderground v.1.15,2013-01-29 21:04:00,
2013-01-29 16:10:00,63.1,56.8,29.79,SSE,167,5.0,-999.0,80,0.00,,,0.05,Wunderground v.1.15,2013-01-29 21:10:00,
2013-01-29 16:15:00,63.4,57.1,29.79,SSW,199,5.0,-999.0,80,0.00,,,0.05,Wunderground v.1.15,2013-01-29 21:15:00,
2013-01-29 16:21:00,63.7,57.1,29.79,South,178,6.0,-999.0,79,0.00,,,0.05,Wunderground v.1.15,2013-01-29 21:21:00,
2013-01-29 16:26:00,63.9,56.5,29.78,South,182,6.0,-999.0,77,0.00,,,0.05,Wunderground v.1.15,2013-01-29 21:26:00,
2013-01-29 16:32:00,63.9,56.5,29.77,South,175,6.0,-999.0,77,0.00,,,0.05,Wunderground v.1.15,2013-01-29 21:32:00,
2013-01-29 16:38:00,64.0,56.6,29.77,SSW,205,6.0,-999.0,77,0.00,,,0.05,Wunderground v.1.15,2013-01-29 21:38:00,
2013-01-29 16:44:00,63.9,56.2,29.77,South,190,7.0,-999.0,76,0.00,,,0.05,Wunderground v.1.15,2013-01-29 21:44:00,
2013-01-29 16:50:00,63.6,55.9,29.77,South,182,6.0,-999.0,76,0.00,,,0.05,Wunderground v.1.15,2013-01-29 21:50:00,
2013-01-29 16:56:00,63.4,55.7,29.77,South,173,6.0,-999.0,76,0.00,,,0.05,Wunderground v.1.15,2013-01-29 21:56:00,
2013-01-29 17:02:00,63.3,55.6,29.77,SSE,166,6.0,-999.0,76,0.00,,,0.05,Wunderground v.1.15,2013-01-29 22:02:00,
2013-01-29 17:07:00,63.1,55.0,29.76,South,188,6.0,-999.0,75,0.00,,,0.05,Wunderground v.1.15,2013-01-29 22:07:00,
2013-01-29 17:13:00,63.0,54.9,29.76,SSW,197,7.0,-999.0,75,0.00,,,0.05,Wunderground v.1.15,2013-01-29 22:13:00,
2013-01-29 17:19:00,62.6,54.6,29.77,South,184,6.0,-999.0,75,0.00,,,0.05,Wunderground v.1.15,2013-01-29 22:19:00,
2013-01-29 17:24:00,62.3,54.3,29.76,South,182,6.0,-999.0,75,0.00,,,0.05,Wunderground v.1.15,2013-01-29 22:24:00,
2013-01-29 17:51:00,58.8,52.3,29.76,SSE,168,4.0,-999.0,79,0.00,,,0.05,Wunderground v.1.15,2013-01-29 22:51:00,
2013-01-29 17:57:00,58.2,52.1,29.76,SSE,157,4.0,-999.0,80,0.00,,,0.05,Wunderground v.1.15,2013-01-29 22:57:00,
2013-01-29 18:03:00,57.5,51.7,29.76,SSE,157,3.0,-999.0,81,0.00,,,0.05,Wunderground v.1.15,2013-01-29 23:03:00,
2013-01-29 18:09:00,57.4,52.3,29.76,SSE,159,2.0,-999.0,83,0.00,,,0.05,Wunderground v.1.15,2013-01-29 23:09:00,
2013-01-29 18:15:00,57.8,52.3,29.76,SSE,159,1.0,-999.0,82,0.00,,,0.05,Wunderground v.1.15,2013-01-29 23:15:00,
2013-01-29 18:20:00,57.5,51.7,29.76,SSE,159,1.0,-999.0,81,0.00,,,0.05,Wunderground v.1.15,2013-01-29 23:20:00,
2013-01-29 18:26:00,56.9,51.5,29.76,SSE,159,2.0,-999.0,82,0.00,,,0.05,Wunderground v.1.15,2013-01-29 23:26:00,
2013-01-29 18:32:00,56.5,51.1,29.76,SSE,159,1.0,-999.0,82,0.00,,,0.05,Wunderground v.1.15,2013-01-29 23:32:00,
2013-01-29 18:37:00,56.6,51.5,29.76,SSE,167,1.0,-999.0,83,0.00,,,0.05,Wunderground v.1.15,2013-01-29 23:37:00,
2013-01-29 18:43:00,57.1,51.7,29.75,South,170,3.0,-999.0,82,0.00,,,0.05,Wunderground v.1.15,2013-01-29 23:43:00,
2013-01-29 18:49:00,57.6,52.1,29.75,South,180,4.0,-999.0,82,0.00,,,0.05,Wunderground v.1.15,2013-01-29 23:49:00,
2013-01-29 18:55:00,58.6,52.4,29.75,South,181,5.0,-999.0,80,0.00,,,0.05,Wunderground v.1.15,2013-01-29 23:55:00,
2013-01-29 19:01:00,59.6,53.1,29.75,South,180,6.0,-999.0,79,0.00,,,0.05,Wunderground v.1.15,2013-01-30 00:01:00,
2013-01-29 19:07:00,60.7,53.4,29.75,South,191,8.0,-999.0,77,0.00,,,0.05,Wunderground v.1.15,2013-01-30 00:07:00,
2013-01-29 19:12:00,60.9,52.9,29.75,SSW,201,6.0,-999.0,75,0.00,,,0.05,Wunderground v.1.15,2013-01-30 00:12:00,
2013-01-29 19:18:00,61.2,53.2,29.74,South,171,6.0,-999.0,75,0.00,,,0.05,Wunderground v.1.15,2013-01-30 00:18:00,
2013-01-29 19:24:00,61.0,53.0,29.74,South,188,6.0,-999.0,75,0.00,,,0.05,Wunderground v.1.15,2013-01-30 00:24:00,
2013-01-29 19:30:00,60.6,52.6,29.74,South,175,5.0,-999.0,75,0.00,,,0.05,Wunderground v.1.15,2013-01-30 00:30:00,
2013-01-29 19:36:00,60.7,52.7,29.73,SSE,164,6.0,-999.0,75,0.00,,,0.05,Wunderground v.1.15,2013-01-30 00:36:00,
2013-01-29 19:42:00,61.0,53.0,29.73,SSE,160,7.0,-999.0,75,0.00,,,0.05,Wunderground v.1.15,2013-01-30 00:42:00,
2013-01-29 19:48:00,61.2,53.2,29.74,South,179,7.0,-999.0,75,0.00,,,0.05,Wunderground v.1.15,2013-01-30 00:48:00,
2013-01-29 19:53:00,61.5,53.1,29.73,SSW,197,8.0,-999.0,74,0.00,,,0.05,Wunderground v.1.15,2013-01-30 00:53:00,
2013-01-29 19:59:00,61.5,53.1,29.73,South,179,8.0,-999.0,74,0.00,,,0.05,Wunderground v.1.15,2013-01-30 00:59:00,
2013-01-29 20:05:00,61.4,53.0,29.74,SSW,202,7.0,-999.0,74,0.00,,,0.05,Wunderground v.1.15,2013-01-30 01:05:00,
2013-01-29 20:11:00,61.2,52.8,29.74,South,188,6.0,-999.0,74,0.00,,,0.05,Wunderground v.1.15,2013-01-30 01:11:00,
2013-01-29 20:17:00,61.1,53.1,29.73,SSW,198,6.0,-999.0,75,0.00,,,0.05,Wunderground v.1.15,2013-01-30 01:17:00,
2013-01-29 20:23:00,61.3,52.9,29.73,SSW,194,6.0,-999.0,74,0.00,,,0.05,Wunderground v.1.15,2013-01-30 01:23:00,
2013-01-29 20:29:00,61.4,53.0,29.74,SSE,161,6.0,-999.0,74,0.00,,,0.05,Wunderground v.1.15,2013-01-30 01:29:00,
2013-01-29 20:34:00,61.1,52.7,29.74,South,188,6.0,-999.0,74,0.00,,,0.05,Wunderground v.1.15,2013-01-30 01:34:00,
2013-01-29 20:40:00,60.6,52.6,29.73,SSW,195,5.0,-999.0,75,0.00,,,0.05,Wunderground v.1.15,2013-01-30 01:40:00,
2013-01-29 20:46:00,60.2,52.6,29.74,South,183,5.0,-999.0,76,0.00,,,0.05,Wunderground v.1.15,2013-01-30 01:46:00,
2013-01-29 20:52:00,60.0,52.4,29.73,SSW,200,5.0,-999.0,76,0.00,,,0.05,Wunderground v.1.15,2013-01-30 01:52:00,
2013-01-29 20:58:00,60.1,52.5,29.73,South,170,5.0,-999.0,76,0.00,,,0.05,Wunderground v.1.15,2013-01-30 01:58:00,
2013-01-29 21:04:00,60.3,52.7,29.73,SSW,195,6.0,-999.0,76,0.00,,,0.05,Wunderground v.1.15,2013-01-30 02:04:00,
2013-01-29 21:10:00,60.4,52.8,29.73,SSW,213,6.0,-999.0,76,0.00,,,0.05,Wunderground v.1.15,2013-01-30 02:10:00,
2013-01-29 21:16:00,60.7,52.7,29.74,SW,215,6.0,-999.0,75,0.00,,,0.05,Wunderground v.1.15,2013-01-30 02:16:00,
2013-01-29 21:21:00,60.8,52.8,29.73,SSW,213,6.0,-999.0,75,0.00,,,0.05,Wunderground v.1.15,2013-01-30 02:21:00,
2013-01-29 21:27:00,60.6,52.6,29.72,South,191,6.0,-999.0,75,0.00,,,0.05,Wunderground v.1.15,2013-01-30 02:27:00,
2013-01-29 21:33:00,60.7,52.7,29.72,SSW,203,6.0,-999.0,75,0.00,,,0.05,Wunderground v.1.15,2013-01-30 02:33:00,
2013-01-29 21:39:00,60.8,52.8,29.71,SSW,209,7.0,-999.0,75,0.00,,,0.05,Wunderground v.1.15,2013-01-30 02:39:00,
2013-01-29 21:45:00,60.6,52.6,29.71,South,182,7.0,-999.0,75,0.00,,,0.05,Wunderground v.1.15,2013-01-30 02:45:00,
2013-01-29 21:51:00,60.7,52.7,29.71,South,186,7.0,-999.0,75,0.00,,,0.05,Wunderground v.1.15,2013-01-30 02:51:00,
2013-01-29 21:57:00,60.8,52.8,29.71,SSW,192,8.0,-999.0,75,0.00,,,0.05,Wunderground v.1.15,2013-01-30 02:57:00,
2013-01-29 22:03:00,60.6,52.6,29.70,South,170,7.0,-999.0,75,0.00,,,0.05,Wunderground v.1.15,2013-01-30 03:03:00,
2013-01-29 22:09:00,60.5,52.9,29.70,SSW,193,7.0,-999.0,76,0.00,,,0.05,Wunderground v.1.15,2013-01-30 03:09:00,
2013-01-29 22:14:00,60.3,52.7,29.70,South,173,7.0,-999.0,76,0.00,,,0.05,Wunderground v.1.15,2013-01-30 03:14:00,
2013-01-29 22:20:00,60.2,52.6,29.70,South,183,7.0,-999.0,76,0.00,,,0.05,Wunderground v.1.15,2013-01-30 03:20:00,
2013-01-29 22:26:00,60.4,52.8,29.69,South,187,7.0,-999.0,76,0.00,,,0.05,Wunderground v.1.15,2013-01-30 03:26:00,
2013-01-29 22:32:00,60.3,52.7,29.69,SSW,205,7.0,-999.0,76,0.00,,,0.05,Wunderground v.1.15,2013-01-30 03:32:00,
2013-01-29 22:38:00,60.4,53.2,29.69,South,189,7.0,-999.0,77,0.00,,,0.05,Wunderground v.1.15,2013-01-30 03:38:00,
2013-01-29 22:44:00,60.8,53.5,29.68,South,172,8.0,-999.0,77,0.00,,,0.05,Wunderground v.1.15,2013-01-30 03:44:00,
2013-01-29 22:50:00,60.8,53.5,29.68,SSW,192,9.0,-999.0,77,0.00,,,0.05,Wunderground v.1.15,2013-01-30 03:50:00,
2013-01-29 22:55:00,60.9,53.6,29.67,SSW,192,8.0,-999.0,77,0.00,,,0.05,Wunderground v.1.15,2013-01-30 03:55:00,
2013-01-29 23:01:00,61.0,53.7,29.67,South,186,9.0,-999.0,77,0.00,,,0.05,Wunderground v.1.15,2013-01-30 04:01:00,
2013-01-29 23:07:00,61.1,53.5,29.67,South,184,8.0,-999.0,76,0.00,,,0.05,Wunderground v.1.15,2013-01-30 04:07:00,
2013-01-29 23:13:00,61.1,53.8,29.67,South,184,9.0,-999.0,77,0.00,,,0.05,Wunderground v.1.15,2013-01-30 04:13:00,
2013-01-29 23:19:00,61.1,53.5,29.67,SSW,207,10.0,-999.0,76,0.00,,,0.05,Wunderground v.1.15,2013-01-30 04:19:00,
2013-01-29 23:25:00,61.1,53.8,29.67,South,180,8.0,-999.0,77,0.00,,,0.05,Wunderground v.1.15,2013-01-30 04:25:00,
2013-01-29 23:31:00,61.4,54.1,29.66,SSW,202,9.0,-999.0,77,0.00,,,0.05,Wunderground v.1.15,2013-01-30 04:31:00,
2013-01-29 23:36:00,61.6,54.0,29.65,SSW,202,9.0,-999.0,76,0.00,,,0.05,Wunderground v.1.15,2013-01-30 04:36:00,
2013-01-29 23:42:00,61.6,54.3,29.64,South,171,9.0,-999.0,77,0.00,,,0.05,Wunderground v.1.15,2013-01-30 04:42:00,
2013-01-29 23:48:00,61.7,54.4,29.64,SW,219,10.0,-999.0,77,0.00,,,0.05,Wunderground v.1.15,2013-01-30 04:48:00,
2013-01-29 23:54:00,61.9,54.6,29.64,South,178,9.0,-999.0,77,0.00,,,0.05,Wunderground v.1.15,2013-01-30 04:54:00,